Location: Gleizolles
(44.4833°N, 6.7667°E)
Time: 20:41:27
(UTC+00:00)

Vanguard 1 - All Passes

Search period start: 25 June 2024 00:00
Search period end: 05 July 2024 00:00
Orbit: 651 x 3825 km, 34.2° (Epoch: 22 June)

Date Brightness Start Highest point End Pass type
(mag) Time Alt. Az. Time Alt. Az. Time Alt. Az.
25 Jun - 09:08:47 10° SSW 09:17:15 23° SSE 09:22:58 10° ESE daylight
25 Jun - 11:30:19 10° WSW 11:37:41 32° S 11:42:31 10° ESE daylight
25 Jun - 13:52:38 10° WSW 13:57:04 23° SSW 14:00:41 10° SE daylight
26 Jun - 07:10:21 10° S 07:15:52 13° SSE 07:20:24 10° SE daylight
26 Jun - 09:27:54 10° SW 09:37:20 28° SSE 09:43:19 10° ESE daylight
26 Jun - 11:50:19 10° WSW 11:57:37 34° S 12:02:22 10° ESE daylight
26 Jun - 14:12:58 10° WSW 14:16:48 19° SSW 14:20:03 10° SSE daylight
27 Jun - 07:27:11 10° S 07:36:01 18° SSE 07:42:26 10° ESE daylight
27 Jun - 09:47:24 10° SW 09:57:22 32° S 10:03:28 10° ESE daylight
27 Jun - 12:10:25 10° WSW 12:17:29 33° S 12:22:09 10° SE daylight
27 Jun - 14:33:36 10° WSW 14:36:29 15° SSW 14:39:02 10° S daylight
28 Jun - 07:45:19 10° SSW 07:56:09 24° SSE 08:03:24 10° ESE daylight
28 Jun - 10:07:10 10° SW 10:17:23 36° S 10:23:29 10° ESE daylight
28 Jun - 12:30:37 10° WSW 12:37:18 31° SSW 12:41:50 10° SE daylight
28 Jun - 14:55:31 10° SW 14:56:06 10° SSW 14:56:40 10° SSW daylight
29 Jun - 05:48:17 10° SSE 05:54:05 12° SSE 05:59:02 10° SE daylight
29 Jun - 08:04:08 10° SSW 08:16:17 29° SSE 08:23:54 10° ESE daylight
29 Jun - 10:27:08 10° WSW 10:37:22 39° S 10:43:23 10° ESE daylight
29 Jun - 12:50:54 10° WSW 12:57:04 28° SSW 13:01:24 10° SE daylight
30 Jun - 06:04:04 10° S 06:14:14 18° SSE 06:21:53 10° ESE daylight
30 Jun - 08:23:25 10° SW 08:36:22 34° SSE 08:44:08 10° ESE daylight
30 Jun - 10:47:16 10° WSW 10:57:18 41° S 11:03:13 10° ESE daylight
30 Jun - 13:11:18 10° WSW 13:16:46 23° SSW 13:20:46 10° SSE daylight
01 Jul - 06:21:36 10° SSW 06:34:22 23° SSE 06:43:14 10° ESE daylight
01 Jul - 08:43:02 10° SW 08:56:27 39° S 09:04:13 10° ESE daylight
01 Jul - 11:07:29 10° WSW 11:17:13 40° S 11:22:59 10° ESE daylight
01 Jul - 13:31:55 10° WSW 13:36:22 18° SSW 13:39:51 10° SSE daylight
02 Jul - 04:28:23 10° SSE 04:31:46 11° SE 04:34:55 10° SE daylight
02 Jul - 06:40:00 10° SSW 06:54:30 29° SSE 07:03:59 10° ESE daylight
02 Jul - 09:02:55 10° WSW 09:16:30 43° S 09:24:12 10° ESE daylight
02 Jul - 11:27:47 10° WSW 11:37:03 38° SSW 11:42:39 10° SE daylight
02 Jul - 13:53:02 10° WSW 13:55:53 13° SW 13:58:21 10° S daylight
03 Jul - 04:41:35 10° S 04:51:50 16° SE 05:00:10 10° ESE daylight
03 Jul - 06:58:56 10° SW 07:14:38 35° SSE 07:24:23 10° E daylight
03 Jul - 09:22:59 10° WSW 09:36:32 46° S 09:44:06 10° ESE daylight
03 Jul - 11:48:10 10° W 11:56:49 34° SSW 12:02:13 10° SE daylight
04 Jul - 04:58:14 10° S 05:11:55 22° SSE 05:22:12 10° ESE daylight
04 Jul - 07:18:18 10° SW 07:34:45 40° SSE 07:44:35 10° E daylight
04 Jul - 09:43:13 10° WSW 09:56:32 47° S 10:03:56 10° ESE daylight
04 Jul - 12:08:38 10° W 12:16:30 29° SSW 12:21:36 10° SSE daylight
